Weather History for Big Rapids, MI

Change the Weather History Date:

Wednesday, January 16, 2013

  Actual Average Record
Temperature  
Mean Temperature 24 °F -  
Max Temperature 33 °F 28 °F 47 °F (1974)
Min Temperature 15 °F 6 °F -23 °F (1977)
Degree Days  
Heating Degree Days 41    
Moisture  
Dew Point 20 °F    
Average Humidity 78    
Maximum Humidity 89    
Minimum Humidity 53    
Precipitation  
Precipitation 0.00 in - - ()
Sea Level Pressure  
Sea Level Pressure 29.84 in    
Wind  
Wind Speed 6 mph (SW)    
Max Wind Speed 20 mph    
Max Gust Speed 29 mph    
Visibility 8 miles    
Events Snow    
Averages and records for this station are not official NWS values.
T = Trace of Precipitation, MM = Missing Value Source: NWS Daily Summary

Daily Weather History Graph

Daily Weather History Graph

Search for Another Location

Airport:

Trip Planner

Search our weather history database for the weather conditions in past years. The results will help you decide how hot, cold, wet, or windy it might be!

Date:

Astronomy

Jan. 16, 2013 Rise Set
Actual Time 8:11 AM EST 5:32 PM EST
Civil Twilight 7:40 AM EST 6:04 PM EST
Nautical Twilight 7:04 AM EST 6:39 PM EST
Astronomical Twilight 6:30 AM EST 7:13 PM EST
Moon 10:35 AM EST (1/16) 11:36 PM EST (1/16)
Length of Visible Light 10h 23m
Length of Day
9h 20m
Waxing Crescent, 28% of the Moon is Illuminated
Jan 16
Waxing Crescent
Jan 18
First Quarter
Jan 26
Full
Feb 3
Last Quarter
Feb 10
New

Hourly Weather History & Observations

Time (EST) Temp. Windchill Dew Point Humidity Pressure Visibility Wind Dir Wind Speed Gust Speed Precip Events Conditions
12:14 AM 16.5 °F 11.0 °F 12.7 °F 85% 30.07 in 10.0 mi South 3.5 mph - N/A   Clear
12:35 AM 15.8 °F - 12.7 °F 88% 30.05 in 10.0 mi Calm Calm - N/A   Clear
1:14 AM 17.2 °F - 13.8 °F 86% 30.04 in 10.0 mi Calm Calm - N/A   Clear
1:35 AM 19.0 °F - 14.9 °F 84% 30.03 in 10.0 mi Calm Calm - N/A   Mostly Cloudy
1:54 AM 17.8 °F - 14.0 °F 85% 30.02 in 10.0 mi Calm Calm - N/A   Scattered Clouds
2:14 AM 18.0 °F - 13.8 °F 84% 30.01 in 10.0 mi Calm Calm - N/A   Mostly Cloudy
2:35 AM 17.8 °F 12.5 °F 14.5 °F 87% 30.01 in 7.0 mi SE 3.5 mph - N/A   Scattered Clouds
2:54 AM 18.0 °F - 14.5 °F 86% 30.01 in 10.0 mi Calm Calm - N/A   Scattered Clouds
3:14 AM 18.5 °F 11.7 °F 15.3 °F 87% 30.00 in 10.0 mi South 4.6 mph - N/A   Mostly Cloudy
3:34 AM 19.4 °F 12.8 °F 14.9 °F 83% 29.98 in 10.0 mi South 4.6 mph - N/A   Scattered Clouds
3:54 AM 19.8 °F 13.2 °F 15.3 °F 83% 29.97 in 10.0 mi South 4.6 mph - N/A   Clear
4:14 AM 19.0 °F 11.1 °F 14.7 °F 83% 29.96 in 10.0 mi South 5.8 mph - N/A   Clear
4:34 AM 18.9 °F 12.1 °F 14.5 °F 83% 29.95 in 10.0 mi South 4.6 mph - N/A   Clear
4:54 AM 18.5 °F 11.7 °F 14.2 °F 83% 29.94 in 10.0 mi South 4.6 mph - N/A   Clear
5:14 AM 18.5 °F 11.7 °F 14.5 °F 85% 29.93 in 10.0 mi South 4.6 mph - N/A   Clear
5:34 AM 18.5 °F 11.7 °F 14.2 °F 83% 29.92 in 10.0 mi South 4.6 mph - N/A   Clear
5:54 AM 18.5 °F 10.4 °F 14.5 °F 85% 29.91 in 10.0 mi SSE 5.8 mph - N/A   Clear
6:14 AM 18.9 °F 9.8 °F 14.9 °F 85% 29.89 in 10.0 mi SSE 6.9 mph - N/A   Clear
6:34 AM 18.9 °F 10.8 °F 14.9 °F 85% 29.88 in 10.0 mi SSE 5.8 mph - N/A   Clear
6:54 AM 18.9 °F 12.1 °F 14.9 °F 85% 29.88 in 7.0 mi SSE 4.6 mph - N/A   Scattered Clouds
7:34 AM 18.7 °F 11.9 °F 14.7 °F 85% 29.87 in 7.0 mi SSE 4.6 mph - N/A   Clear
7:55 AM 16.9 °F 9.8 °F 13.1 °F 85% 29.86 in 7.0 mi SSE 4.6 mph - N/A   Clear
8:14 AM 16.5 °F 11.0 °F 12.9 °F 86% 29.85 in 5.0 mi South 3.5 mph - N/A   Clear
8:34 AM 18.0 °F 9.8 °F 15.3 °F 89% 29.84 in 5.0 mi SSE 5.8 mph - N/A   Clear
8:55 AM 21.2 °F 14.9 °F 18.5 °F 89% 29.84 in 7.0 mi South 4.6 mph - N/A   Clear
9:14 AM 23.0 °F 14.7 °F 19.2 °F 85% 29.83 in 7.0 mi South 6.9 mph - N/A   Clear
9:34 AM 25.0 °F 18.1 °F 19.9 °F 81% 29.82 in 10.0 mi South 5.8 mph - N/A   Clear
9:54 AM 26.6 °F 19.1 °F 20.1 °F 77% 29.81 in 10.0 mi SSW 6.9 mph - N/A   Clear
10:14 AM 28.0 °F 18.1 °F 18.7 °F 68% 29.80 in 10.0 mi SSW 11.5 mph 17.3 mph N/A   Clear
10:34 AM 30.2 °F 20.2 °F 18.7 °F 62% 29.79 in 10.0 mi SW 12.7 mph 20.7 mph N/A   Clear
10:54 AM 30.2 °F 20.8 °F 18.9 °F 63% 29.78 in 10.0 mi SW 11.5 mph 18.4 mph N/A   Clear
11:14 AM 30.2 °F 23.4 °F 19.0 °F 63% 29.76 in 10.0 mi SSW 6.9 mph 19.6 mph N/A   Clear
11:34 AM 32.0 °F 22.1 °F 18.3 °F 57% 29.76 in 10.0 mi WSW 13.8 mph 20.7 mph N/A   Clear
11:54 AM 33.1 °F 22.2 °F 17.8 °F 53% 29.75 in 10.0 mi WSW 17.3 mph 26.5 mph N/A   Scattered Clouds
12:14 PM 32.7 °F 21.4 °F 17.8 °F 54% 29.74 in 10.0 mi WSW 18.4 mph 27.6 mph N/A   Overcast
12:34 PM 32.9 °F 22.0 °F 18.9 °F 56% 29.73 in 10.0 mi WSW 17.3 mph 24.2 mph N/A   Overcast
12:54 PM 32.9 °F 22.0 °F 19.9 °F 59% 29.71 in 10.0 mi SW 17.3 mph 26.5 mph N/A   Overcast
1:14 PM 32.9 °F 21.3 °F 19.9 °F 59% 29.70 in 10.0 mi SW 19.6 mph 28.8 mph N/A Snow Light Snow
1:34 PM 32.0 °F 22.5 °F 21.6 °F 65% 29.69 in 3.0 mi SW 12.7 mph 27.6 mph N/A Snow Light Snow
1:54 PM 32.0 °F 20.5 °F 22.5 °F 68% 29.69 in 2.5 mi SW 18.4 mph 25.3 mph N/A Snow Light Snow
2:14 PM 31.6 °F 22.6 °F 24.1 °F 74% 29.69 in 1.8 mi SW 11.5 mph 18.4 mph N/A Snow Light Snow
2:34 PM 31.8 °F 23.3 °F 23.9 °F 73% 29.68 in 3.0 mi SW 10.4 mph 21.9 mph N/A Snow Light Snow
2:54 PM 31.8 °F 22.8 °F 24.1 °F 73% 29.69 in 4.0 mi WSW 11.5 mph 26.5 mph N/A Snow Light Snow
3:14 PM 31.5 °F 24.2 °F 25.7 °F 79% 29.69 in 1.5 mi WSW 8.1 mph 16.1 mph N/A Snow Light Snow
3:34 PM 31.5 °F 22.3 °F 26.6 °F 82% 29.70 in 1.0 mi SW 11.5 mph 17.3 mph N/A Snow Light Snow
3:54 PM 32.0 °F 23.6 °F 26.6 °F 80% 29.70 in 1.5 mi WSW 10.4 mph 17.3 mph N/A Snow Light Snow
4:14 PM 32.0 °F 26.4 °F 26.1 °F 79% 29.71 in 7.0 mi WSW 5.8 mph - N/A Snow Light Snow
4:34 PM 32.0 °F 24.8 °F 26.1 °F 79% 29.72 in 7.0 mi WSW 8.1 mph 16.1 mph N/A   Overcast
4:54 PM 32.0 °F 26.4 °F 25.7 °F 78% 29.73 in 10.0 mi West 5.8 mph - N/A   Overcast
5:14 PM 32.0 °F 25.6 °F 26.2 °F 79% 29.74 in 5.0 mi West 6.9 mph 16.1 mph N/A   Haze
5:34 PM 32.0 °F 27.5 °F 26.6 °F 80% 29.75 in 7.0 mi West 4.6 mph - N/A   Overcast
5:54 PM 32.0 °F 26.4 °F 26.2 °F 79% 29.76 in 10.0 mi West 5.8 mph - N/A   Overcast
6:14 PM 32.2 °F 24.4 °F 25.2 °F 75% 29.77 in 10.0 mi West 9.2 mph - N/A   Overcast
6:54 PM 32.4 °F 26.9 °F 24.6 °F 73% 29.79 in 10.0 mi West 5.8 mph - N/A   Overcast
7:14 PM 32.5 °F 26.2 °F 24.8 °F 73% 29.80 in 10.0 mi West 6.9 mph - N/A   Overcast
7:34 PM 32.5 °F 28.1 °F 25.0 °F 74% 29.80 in 10.0 mi West 4.6 mph - N/A   Overcast
7:55 PM 32.5 °F 28.1 °F 25.3 °F 75% 29.81 in 10.0 mi West 4.6 mph - N/A   Overcast
8:14 PM 32.5 °F 25.5 °F 25.7 °F 76% 29.82 in 7.0 mi West 8.1 mph - N/A Snow Light Snow
8:34 PM 32.0 °F 26.4 °F 26.8 °F 81% 29.82 in 4.0 mi West 5.8 mph - N/A Snow Light Snow
8:55 PM 32.0 °F 25.6 °F 27.5 °F 83% 29.83 in 2.0 mi West 6.9 mph - N/A Snow Light Snow
9:14 PM 32.0 °F 26.4 °F 28.2 °F 86% 29.84 in 2.5 mi West 5.8 mph - N/A Snow Light Snow
9:34 PM 32.0 °F 23.6 °F 28.9 °F 88% 29.86 in 4.0 mi WNW 10.4 mph - N/A Snow Light Snow
9:55 PM 32.0 °F 23.0 °F 27.5 °F 83% 29.86 in 7.0 mi NW 11.5 mph 17.3 mph N/A Snow Light Snow
10:14 PM 32.0 °F 23.6 °F 27.1 °F 82% 29.87 in 7.0 mi WNW 10.4 mph - N/A   Overcast
10:34 PM 32.0 °F 23.6 °F 26.6 °F 80% 29.88 in 10.0 mi NW 10.4 mph - N/A   Overcast
10:54 PM 32.0 °F 24.2 °F 26.6 °F 80% 29.89 in 10.0 mi NW 9.2 mph - N/A   Overcast
11:14 PM 31.8 °F 24.6 °F 26.6 °F 81% 29.90 in 10.0 mi NW 8.1 mph - N/A   Overcast
11:34 PM 32.0 °F 24.2 °F 26.4 °F 80% 29.91 in 10.0 mi NW 9.2 mph - N/A   Overcast
11:54 PM 31.8 °F 24.6 °F 26.2 °F 80% 29.91 in 10.0 mi WNW 8.1 mph - N/A   Overcast